Weather History for Orangeburg, SC

Change the Weather History Date:

Wednesday, February 6, 2013

  Actual Average Record
Temperature  
Mean Temperature 58 °F 48 °F  
Max Temperature 72 °F 59 °F 80 °F (2008)
Min Temperature 43 °F 37 °F 16 °F (1980)
Degree Days  
Heating Degree Days 7 17  
Month to date heating degree days 102 105  
Since 1 July heating degree days 1287 1602  
Cooling Degree Days 0 0  
Month to date cooling degree days 0 0  
Year to date cooling degree days 20 1  
Growing Degree Days 8 (Base 50)    
Moisture  
Dew Point 41 °F    
Average Humidity 63    
Maximum Humidity 93    
Minimum Humidity 26    
Precipitation  
Precipitation 0.00 in 0.09 in 2.10 in (1956)
Month to date precipitation T 0.58  
Year to date precipitation 0.84 4.56  
Sea Level Pressure  
Sea Level Pressure 30.12 in    
Wind  
Wind Speed 2 mph (NW)    
Max Wind Speed 8 mph    
Max Gust Speed 13 mph    
Visibility 9 miles    
Events      
T = Trace of Precipitation, MM = Missing Value Source: NWS Daily Summary

Daily Weather History Graph

Daily Weather History Graph

Search for Another Location

Airport:

Trip Planner

Search our weather history database for the weather conditions in past years. The results will help you decide how hot, cold, wet, or windy it might be!

Date:

Astronomy

Feb. 06, 2013 Rise Set
Actual Time 7:15 AM EST 6:00 PM EST
Civil Twilight 6:49 AM EST 6:25 PM EST
Nautical Twilight 6:20 AM EST 6:55 PM EST
Astronomical Twilight 5:51 AM EST 7:24 PM EST
Moon 3:52 AM EST (2/6) 2:22 PM EST (2/6)
Length of Visible Light 11h 36m
Length of Day
10h 44m
Waning Crescent, 17% of the Moon is Illuminated
Feb 6
Waning Crescent
Feb 10
New
Feb 17
First Quarter
Feb 25
Full
Mar 4
Last Quarter

Hourly Weather History & Observations

Time (EST) Temp. Windchill Dew Point Humidity Pressure Visibility Wind Dir Wind Speed Gust Speed Precip Events Conditions
12:53 AM 48.0 °F - 43.0 °F 83% 30.03 in 10.0 mi Calm Calm - N/A   Partly Cloudy
2:53 AM 46.9 °F - 43.0 °F 86% 30.04 in 8.0 mi SSW 4.6 mph - N/A   Partly Cloudy
3:53 AM 46.9 °F - 43.0 °F 86% 30.04 in 8.0 mi Calm Calm - N/A   Clear
4:53 AM 45.0 °F - 43.0 °F 93% 30.06 in 7.0 mi Calm Calm - N/A   Mostly Cloudy
5:53 AM 45.0 °F - 42.1 °F 90% 30.08 in 6.0 mi Calm Calm - N/A   Partly Cloudy
6:53 AM 44.1 °F 42.5 °F 41.0 °F 89% 30.10 in 5.0 mi NNW 3.5 mph - N/A   Clear
7:53 AM 46.0 °F - 44.1 °F 93% 30.12 in 3.0 mi Calm Calm - N/A   Clear
8:53 AM 52.0 °F - 46.9 °F 83% 30.15 in - NNW 5.8 mph - N/A   Unknown
9:53 AM 59.0 °F - 46.9 °F 64% 30.16 in 6.0 mi NNW 6.9 mph - N/A   Haze
10:53 AM 63.0 °F - 45.0 °F 52% 30.17 in 10.0 mi Calm Calm - N/A   Clear
11:53 AM 66.0 °F - 41.0 °F 40% 30.16 in 10.0 mi Calm Calm - N/A   Clear
12:53 PM 68.0 °F - 37.0 °F 32% 30.13 in 10.0 mi NW 5.8 mph - N/A   Clear
1:53 PM 70.0 °F - 37.0 °F 30% 30.11 in 10.0 mi NNW 3.5 mph - N/A   Clear
2:53 PM 70.0 °F - 37.0 °F 30% 30.10 in 10.0 mi SSW 5.8 mph - N/A   Clear
3:53 PM 71.1 °F - 35.1 °F 27% 30.10 in 10.0 mi Variable 3.5 mph - N/A   Clear
4:53 PM 70.0 °F - 34.0 °F 27% 30.10 in 10.0 mi WNW 5.8 mph - N/A   Clear
5:53 PM 64.9 °F - 37.9 °F 37% 30.12 in 10.0 mi Calm Calm - N/A   Clear
6:53 PM 57.9 °F - 39.9 °F 51% 30.12 in 8.0 mi Calm Calm - N/A   Clear
7:53 PM 54.0 °F - 39.9 °F 59% 30.14 in 10.0 mi Calm Calm - N/A   Clear
8:53 PM 48.0 °F - 39.9 °F 74% 30.15 in 10.0 mi Calm Calm - N/A   Clear
9:53 PM 50.0 °F - 41.0 °F 71% 30.19 in 10.0 mi Calm Calm - N/A   Clear
10:53 PM 45.0 °F - 39.0 °F 80% 30.18 in 10.0 mi Calm Calm - N/A   Clear
11:53 PM 45.0 °F - 39.0 °F 80% 30.17 in 10.0 mi Calm Calm - N/A   Clear